EDT,Max TemperatureF,Mean TemperatureF,Min TemperatureF,Max Dew PointF,MeanDew PointF,Min DewpointF,Max Humidity, Mean Humidity, Min Humidity, Max Sea Level PressureIn, Mean Sea Level PressureIn, Min Sea Level PressureIn, Max VisibilityMiles, Mean VisibilityMiles, Min VisibilityMiles, Max Wind SpeedMPH, Mean Wind SpeedMPH, Max Gust SpeedMPH,PrecipitationIn, CloudCover, Events, WindDirDegrees
2012-10-1,71,58,44,61,53,45,100,84,53,29.99,29.95,29.92,10,10,4,13,2,17,0.00,3,Rain,210
2012-10-2,64,62,60,64,62,59,100,100,94,29.97,29.94,29.91,10,3,0,8,3,,0.00,8,Fog-Rain,15
2012-10-3,80,72,64,73,68,64,100,93,65,30.13,30.06,29.97,10,7,0,6,2,,0.00,4,Fog-Rain,185
2012-10-4,78,69,59,72,66,57,100,85,51,30.16,30.14,30.11,10,8,4,13,3,18,0.00,3,Rain,315
2012-10-5,80,68,55,61,58,54,100,78,45,30.16,30.09,29.96,10,10,7,10,3,16,0.00,0,,239
2012-10-6,77,64,50,63,54,43,100,79,56,30.07,29.94,29.86,10,10,7,25,6,37,0.00,1,,279
2012-10-7,53,48,44,50,47,43,100,88,71,30.19,30.11,30.04,10,10,3,8,2,,0.00,6,Rain,279
2012-10-8,50,46,41,45,42,41,100,87,71,30.32,30.26,30.19,10,10,10,12,4,,0.00,5,Rain,354
2012-10-9,60,52,44,54,48,43,100,83,67,30.24,30.16,30.08,10,10,4,9,4,,0.00,8,Rain,6
2012-10-10,69,58,46,54,49,41,100,77,46,30.11,30.00,29.88,10,9,4,21,3,29,0.00,3,,295
2012-10-11,60,51,42,41,37,34,93,60,39,30.31,30.23,30.11,10,10,10,14,6,18,0.00,0,,288
2012-10-12,62,50,37,43,40,36,100,75,45,30.44,30.25,30.15,10,10,10,21,4,28,0.00,0,,322
2012-10-13,60,46,33,41,36,32,100,69,42,30.54,30.43,30.29,10,10,10,14,4,17,0.00,0,,169
2012-10-14,73,60,46,59,51,41,93,75,53,30.28,30.12,29.93,10,10,10,17,7,24,0.00,2,,190
2012-10-15,68,60,53,66,60,48,100,90,72,29.92,29.78,29.69,10,9,2,15,9,23,0.00,4,Rain,232
2012-10-16,62,52,41,50,44,41,100,71,48,29.94,29.90,29.84,10,10,10,20,7,26,0.00,2,,324
2012-10-17,68,52,37,52,46,37,100,80,46,30.03,29.96,29.92,10,10,7,12,3,17,0.00,0,,175
2012-10-18,69,58,48,61,54,48,100,87,60,29.97,29.89,29.81,10,9,2,17,5,22,0.00,4,Rain-Thunderstorm,157
2012-10-19,71,64,57,64,57,46,100,87,50,29.80,29.71,29.62,10,7,1,9,4,,0.00,5,Rain,265
2012-10-20,64,55,46,50,44,39,94,66,45,29.95,29.80,29.68,10,10,10,15,6,18,0.00,3,,308
2012-10-21,64,54,42,45,43,41,100,69,45,30.16,30.07,29.95,10,10,10,17,5,22,0.00,1,,297
2012-10-22,71,56,41,52,47,41,100,74,46,30.23,30.16,30.11,10,10,10,10,3,,0.00,0,,278
2012-10-23,80,63,46,59,54,46,100,76,42,30.15,30.09,30.04,10,10,10,7,1,,0.00,1,,173
2012-10-24,80,66,53,61,57,54,100,77,39,30.14,30.10,30.08,10,10,10,9,1,16,0.00,3,,316
2012-10-25,69,62,55,63,60,55,100,92,78,30.23,30.18,30.14,10,7,2,7,2,,0.00,5,,100
2012-10-26,69,64,60,63,61,59,100,90,73,30.21,30.14,30.06,10,8,3,9,2,,0.00,7,,101
2012-10-27,69,64,59,61,57,52,100,82,56,30.06,29.96,29.88,10,10,5,10,4,,0.00,5,,41
2012-10-28,59,55,51,55,52,46,100,84,63,29.88,29.76,29.63,10,8,4,18,10,30,0.52,7,Rain,22
2012-10-29,51,48,44,52,49,45,100,99,93,29.63,29.30,28.66,10,6,2,34,18,55,2.58,8,Rain,337
2012-10-30,44,42,41,45,42,41,100,99,93,29.47,29.18,28.69,10,8,2,33,15,51,0.67,8,Rain,218
2012-10-31,53,46,39,45,40,36,100,81,54,29.66,29.56,29.47,10,10,10,14,3,20,0.01,7,Rain-Thunderstorm,251